www.pogodaiklimat.ru

Погода и климат >> Архив погоды >> Россия >> Ростовская область >> Чертково


АРХИВ ПОГОДЫ в Чертково

Время (UTC), дата Ветер
(напр.,м/с)
 
Видим.   Явления Облачность Т
(С)
Тd
(С)
f
(%)
Тe
(С)
Тes
(С)
Комфортность P
(гПа)
Po
(гПа)
Тmin
(С)
Tmax
(С)
R
(мм)
R24
(мм)
S
(см)
21 19.05 штиль 0 20 км ясно +13.1 +4.8 57 +13 +13 1016.9 999.4
00 20.05 штиль 0 20 км ясно +13.5 +3.7 51 +13 +13 1017.5 1000.1
03 20.05 штиль 0 20 км 1/0
[Ci fib]
+13.3 +3.6 52 +13 +15 1019.3 1001.8 +11.2
06 20.05 В 1 20 км ясно +19.0 +5.0 40 +20 +32 1020.0 1002.8
09 20.05 В 1 20 км 4/0
[Ci fib]
+21.5 +2.8 29 +21 +40 комфорт 1020.2 1003.1
12 20.05 СВ 1 20 км 6/0
[Ci fib]
+22.8 +1.8 25 +22 +35 комфорт 1019.3 1002.3
15 20.05 СВ 1 20 км 3/0
[Ci fib]
+22.2 +2.2 27 +22 +24 комфорт 1019.1 1002.1 +23.2
18 20.05 штиль 0 20 км ясно +15.9 +3.4 43 +16 +16 1020.3 1002.9
21 20.05 штиль 0 20 км ясно +13.0 +1.6 46 +13 +13 1021.2 1003.6
00 21.05 штиль 0 20 км ясно +8.9 +2.5 64 +8 +8 1021.6 1003.8
03 21.05 штиль 0 20 км ясно +10.9 +3.7 61 +11 +12 1022.0 1004.3 +8.1
06 21.05 штиль 0 20 км ясно +18.7 +4.6 39 +19 +32 опасность
простуды
1021.8 1004.6
09 21.05 В 3 20 км 8/0
[Ci fib]
+21.6 +1.6 27 +21 +33 комфорт 1021.3 1004.2
12 21.05 В 2 20 км 6/0
[Ci fib]
+22.9 +3.1 27 +23 +33 комфорт 1020.1 1003.1
15 21.05 ЮВ 1 20 км 8/0
[Ci fib]
+22.8 +2.9 27 +22 +25 комфорт 1018.8 1001.8 +23.7
18 21.05 штиль 0 20 км 10/0
[Ci sp]
+16.6 +5.8 49 +17 +17 1018.7 1001.4
21 21.05 штиль 0 20 км 10/0
[Ci fib]
+13.0 +7.0 67 +13 +13 1018.8 1001.3
00 22.05 штиль 0 20 км 10/0
[Ci fib]
+10.5 +6.5 76 +10 +10 1018.1 1000.4
03 22.05 штиль 0 20 км 10/10 600 м
[Cb cap]
+11.5 +6.9 73 +11 +11 1017.1 999.5 +10.3
06 22.05 ЮВ 4 20 км 10/10 600 м
[Cb cap]
+18.3 +7.7 50 +18 +18 1015.8 998.7
09 22.05 Ю 5-10
{10}
20 км 10/10 600 м
[Cb cap]
+22.9 +6.3 34 +23 +23 комфорт 1014.3 997.5
12 22.05 ЮВ 4
{11}
20 км 9/9 600 м
[Cu hum Cc]
+22.3 +2.4 27 +22 +23 комфорт 1013.1 996.2
15 22.05 ЮВ 1 20 км 10/9 600 м
[Cb cap Ci fib]
+20.2 +4.3 35 +22 +22 комфорт 1012.0 995.0 +24.3
18 22.05 штиль 0 20 км 9/9 600 м
[Cb cap]
+15.8 +6.8 55 +16 +16 1011.0 993.8
21 22.05 штиль 0 20 км слаб. ливневой дождь 10/10 600 м
[Cb cap]
+14.3 +9.0 70 +14 +14 1010.1 992.8
00 23.05 ЮЗ 1 10 км слаб. ливневой дождь 10/10 600 м
[Cb cap]
+12.4 +11.4 94 +12 +12 1009.5 992.1
03 23.05 штиль 0 10 км слаб. ливневой дождь 10/9 600 м
[Cb cap Ci fib]
+12.9 +11.9 94 +12 +12 1009.2 991.9 +12.4 16
06 23.05 штиль 0 20 км {ливн. осадки} 9/9 600 м
[Cb cap]
+16.4 +12.9 80 +16 +18 1009.1 992.0
09 23.05 штиль 0 20 км 8/8 600 м
[Cb cap]
+19.4 +11.0 58 +20 +25 1008.3 991.3
12 23.05 штиль 0 20 км 10/9 600 м
[Cb cap Ci fib]
+20.2 +11.0 55 +22 +23 комфорт 1008.3 990.3
15 23.05 штиль 0 20 км {ливн. осадки} 9/8 600 м
[Cb cap Ci fib]
+19.9 +10.8 56 +21 +22 комфорт 1007.0 990.1 +21.7 0.3
18 23.05 штиль 0 20 км 6/6 600 м
[Cb cap]
+17.1 +10.8 66 +17 +17 1007.6 990.5
21 23.05 штиль 0 20 км 4/0
[Ci fib]
+14.6 +11.0 79 +14 +14 1008.3 991.1
00 24.05 штиль 0 20 км 3/0
[Ci fib]
+14.1 +11.2 83 +14 +14 1008.0 990.7
03 24.05 штиль 0 20 км 6/3 600 м
[Cb cap Ci fib]
+15.3 +11.7 79 +15 +16 1008.1 990.9 +13.6
06 24.05 СЗ 1 20 км 1/0
[Ci fib]
+20.4 +13.6 65 +24 +35 комфорт 1008.6 991.7
09 24.05 штиль 0 20 км 3/0
[Ci fib]
+23.9 +12.8 50 +26 +48 жарко 1008.7 992.0
12 24.05 Ю 1 20 км 8/8 600 м
[Cu hum Ci fib]
+25.2 +12.8 46 +27 +30 жарко 1008.4 991.8
15 24.05 штиль 0 20 км 8/6 600 м
[Cu hum Ci fib]
+24.3 +13.5 51 +27 +28 жарко 1008.4 991.8 +25.7
18 24.05 штиль 0 20 км 3/0
[Ci fib]
+18.2 +13.8 75 +18 +18 1009.8 992.8
21 24.05 штиль 0 20 км ясно +16.4 +12.9 80 +16 +16 1010.0 992.9
00 25.05 штиль 0 20 км 3/0
[Ci fib]
+13.8 +12.5 92 +13 +13 1010.2 992.9
03 25.05 штиль 0 20 км 4/0
[Ci fib]
+14.5 +12.4 87 +14 +16 1010.5 993.2 +12.7
06 25.05 В 4 20 км 9/0
[Cc]
+20.2 +15.4 74 +23 +28 комфорт 1009.9 993.0
09 25.05 В 4 20 км 10/10 600 м
[Cb cap]
+22.9 +15.3 62 +27 +27 душно 1009.2 992.5
12 25.05 ЮВ 4
{10}
20 км {ливн. осадки} 10/9 600 м
[Cb cap Cc]
+23.3 +13.9 55 +27 +27 душно 1007.0 990.3
15 25.05 З 1 20 км 10/10 600 м
[Cb cap]
+20.0 +13.3 65 +23 +23 комфорт 1006.6 989.8 +24.6 0.8
18 25.05 штиль 0 20 км слаб. ливневой дождь {гроза} 10/10 600 м
[Cb cap]
+15.4 +14.8 96 +15 +15 1007.0 989.9
21 25.05 штиль 0 20 км {ливн. осадки} 10/10 600 м
[Cb cap]
+15.0 +14.4 96 +15 +15 1005.8 988.7
00 26.05 штиль 0 20 км {ливн. осадки} 10/10 600 м
[Cb cap]
+15.5 +15.0 97 +15 +15 1004.4 987.3
03 26.05 штиль 0 20 км {ливн. осадки} 10/10 600 м
[Cb cap]
+15.4 +14.3 93 +15 +15 1003.6 986.5 +14.8 11
06 26.05 ЮЗ 1 10 км слаб. ливневой дождь 10/10 600 м
[Cb cap]
+16.3 +14.6 90 +17 +17 1003.8 986.8
09 26.05 штиль 0 20 км слаб. ливневой дождь 10/10 600 м
[Cb cap]
+18.1 +15.7 86 +18 +18 1003.7 986.8
12 26.05 З 3 20 км в посл. час ливневой дождь 10/10 600 м
[Cb cap]
+19.2 +15.8 81 +21 +21 комфорт 1004.7 987.9
15 26.05 штиль 0 20 км в посл. час гроза {ливн. осадки} 10/10 600 м
[Cb cap]
+16.6 +15.9 96 +16 +16 1006.2 989.3 +20.0 19

 

Местоположение метеостанции Чертково (Ростовская область, Россия): широта 49.38 долгота 40.17 высота над уровнем моря 145 м.

В архиве по умолчанию представлена погода в Чертково за последнюю неделю. Архивные данные за месяц целиком и за предыдущие месяцы, начиная с января 2011 года, Вы можете получить, выбрав интересующий диапазон дат из раскрывающегося списка и нажав кнопку "Ввод!".


*Определитесь, кто Вы:
робот инопланетянин человек

Внимание! Время в таблицах - всемирное. Для получения местного времени необходимо прибавить поправку, которая равна 3 ч.

Смотрите также архив погоды в соседних городах и на ближайших метеорологических станциях:

Погода в Беловодске (Луганская область, Украина) (46 км)
Погода в Миллерово (Ростовская область, Россия) (52 км)
Погода в Богучаре (Воронежская область, Россия) (68 км)
Погода в Казанской (Ростовская область, Россия) (85 км)
Погода в Павловск (Воронежская область, Россия) (119 км)
Погода в Каменск-Шахтинском (Ростовская область, Россия) (121 км)
Погода в Боковской (Ростовская область, Россия) (122 км)
Погода в Калаче (Воронежская область, Россия) (132 км)
Погода в Белой Калитве (Ростовская область, Россия) (136 км)
Погода в Сватово (Луганская область, Украина) (145 км)

Пояснения к столбцам:

Ветер - указаны скорость ветра в м/с - средняя за 10 мин, порывы в срок и между сроками (в фигурных скобках) и направление, откуда дует ветер: С - северный, СВ - северо-восточный, В - восточный, ЮВ - юго-восточный, Ю - южный, ЮЗ - юго-западный, З - западный, СЗ - северо-западный.
Видимость - горизонтальная дальность видимости в метрах или километрах. При видимости от 1 до 10 км при отсутствии осадков обычно наблюдается дымка, при ухудшении видимости до 1 км и менее - туман. В сухую погоду видимость может ухудшаться дымом, пылью или мглою.
Явления - указаны атмосферные явления, наблюдавшиеся в срок или в последний час перед сроком; фигурными скобками обозначены явления, наблюдавшиеся между сроками (за 1-3 часа до срока); квадратными скобками обозначены град или гололедные отложения с указанием их диаметра в мм.
Облачность - указаны через наклонную черту общая и нижняя облачность в баллах и высота нижней границы облаков в метрах; квадратными скобками обозначены формы облаков: Ci - перистые, Cs - перисто-слоистые, Cc - перисто-кучевые, Ac - высококучевые, As - высокослоистые, Sc - слоисто-кучевые, Ns - слоисто-дождевые, Cu - кучевые, Cb - кучево-дождевые. Подробнее классификацию облаков см. в Атласе облаков (PDF).
T - Температура воздуха - температура, измеренная на высоте 2 м над землей.
Td - Температура точки росы - температура, при понижении до которой содержащийся в воздухе водяной пар достигнет насыщения.
f - Относительная влажность воздуха - влажноcть воздуха, измеренная на высоте 2 м над землей.
Te - Эффективная температура - температура, которую ощущает одетый по сезону человек в тени. Характеристика душности погоды. При расчете учитывается влияние влажности воздуха и скорости ветра на теплоощущения человека.
Tes - Эффективная температура на солнце - температура, которую ощущает человек, с поправкой на солнечный нагрев. Характеристика знойности погоды. Зависит от высоты солнца над горизонтом, облачности и скорости ветра. Ночью, в пасмурную погоду, а также при ветре 12 м/с и более поправка равна нулю.
P - Атмосферное давление - приведенное к уровню моря атмосферное давление.
Po - Атмосферное давление - измеренное на уровне метеостанции атмосферное давление.
Tmin - Минимальная температура - минимум температуры воздуха на высоте 2 м над землей.
Tmax - Максимальная температура - максимум температуры воздуха на высоте 2 м над землей.
R - Количество осадков - Количество выпавших осадков за период времени, мм. При наведении курсора мыши на число - период времени, за который выпало указанное количество осадков.
R24 - Количество осадков - Количество выпавших осадков за 24 часа, мм.
S - Снежный покров - Высота снежного покрова, см. При наведении курсора мыши на число - состояние снежного покрова и степень покрытия местности в баллах.